Bradford, PA

5:06 PM EDT on May 29, 2017 (GMT -0400)
Bradford Regional

Weather History for KBFD - January, 2014

Change the Weather History Date:

Sunday, January 26, 2014

  Actual Average Record
Temperature  
Mean Temperature 14 °F 21 °F  
Max Temperature 29 °F 29 °F 53 °F (1973)
Min Temperature -1 °F 14 °F -8 °F (1991)
Degree Days  
Heating Degree Days 51 38  
Month to date heating degree days 1173 988  
Since 1 July heating degree days 4109 4044  
Cooling Degree Days 0 0  
Month to date cooling degree days 0 0  
Year to date cooling degree days 0 0  
Moisture  
Dew Point 1 °F    
Average Humidity 77    
Maximum Humidity 87    
Minimum Humidity 66    
Precipitation  
Precipitation T in 0.11 in 0.82 in (1989)
Month to date precipitation 1.94 2.80  
Year to date precipitation 1.94 2.80  
Sea Level Pressure  
Sea Level Pressure 29.60 in    
Wind  
Wind Speed 10 mph (SW)    
Max Wind Speed 22 mph    
Max Gust Speed 31 mph    
Visibility 5 miles    
Events Snow    
T = Trace of Precipitation, MM = Missing Value Source: NWS Daily Summary

Daily Weather History Graph

Daily Weather History Graph

Search for Another Location

Airport or City:

Trip Planner

Search our weather history database for the weather conditions in past years. The results will help you decide how hot, cold, wet, or windy it might be!

Date:

Astronomy

Jan. 26, 2014 Rise Set
Actual Time 7:32 AM EST 5:22 PM EST
Civil Twilight 7:02 AM EST 5:52 PM EST
Nautical Twilight 6:28 AM EST 6:25 PM EST
Astronomical Twilight 5:55 AM EST 6:58 PM EST
Moon 3:08 AM EST (1/26) 1:09 PM EST (1/26)
Length of Visible Light 10h 49m
Length of Day
9h 49m
Waning Crescent, 24% of the Moon is Illuminated
Jan 26
Waning Crescent
Jan 30
New
Feb 6
First Quarter
Feb 14
Full
Feb 22
Last Quarter

Hourly Weather History & Observations

Time (EST) Temp. Windchill Dew Point Humidity Pressure Visibility Wind Dir Wind Speed Gust Speed Precip Events Conditions
12:53 AM 5.0 °F -5.6 °F -2.0 °F 73% 29.62 in 4.0 mi West 5.8 mph 18.4 mph 0.00 in Snow Light Snow
1:22 AM 5.0 °F -8.1 °F -0.9 °F 76% 29.53 in 2.5 mi West 8.1 mph - 0.00 in Snow Light Snow
1:29 AM 5.0 °F -9.1 °F -2.0 °F 73% 29.53 in 3.0 mi West 9.2 mph - 0.00 in Snow Light Snow
1:53 AM 5.0 °F -12.3 °F -4.0 °F 66% 29.65 in 8.0 mi West 13.8 mph 24.2 mph 0.00 in   Overcast
2:40 AM 5.0 °F -11.6 °F -5.1 °F 63% 29.57 in 6.0 mi West 12.7 mph 19.6 mph 0.00 in Snow Light Snow
2:53 AM 3.9 °F -15.6 °F -6.0 °F 64% 29.68 in 5.0 mi WNW 17.3 mph 24.2 mph 0.00 in Snow Light Snow
3:07 AM 3.9 °F -14.3 °F -6.0 °F 64% 29.58 in 5.0 mi WNW 15.0 mph 28.8 mph 0.00 in   Overcast
3:41 AM 3.0 °F -12.5 °F -5.1 °F 69% 29.58 in 2.5 mi West 10.4 mph - 0.00 in Snow Light Snow
3:50 AM 3.2 °F -10.3 °F -5.8 °F 66% 29.58 in 1.8 mi WSW 8.1 mph - 0.00 in Snow Light Snow
3:53 AM 3.0 °F -9.3 °F -5.1 °F 69% 29.69 in 2.5 mi West 6.9 mph - 0.00 in Snow Light Snow
4:00 AM 3.0 °F -12.5 °F -6.0 °F 66% 29.59 in 6.0 mi West 10.4 mph 20.7 mph 0.00 in Snow Light Snow
4:19 AM 1.9 °F -16.2 °F -7.1 °F 66% 29.59 in 10.0 mi West 13.8 mph 19.6 mph 0.00 in   Mostly Cloudy
4:53 AM 1.9 °F -13.8 °F -8.0 °F 63% 29.72 in 10.0 mi West 10.4 mph 16.1 mph 0.00 in   Clear
5:53 AM -0.0 °F -11.6 °F -8.0 °F 69% 29.73 in 10.0 mi Variable 5.8 mph - N/A   Clear
6:53 AM -0.0 °F -9.9 °F -8.0 °F 69% 29.74 in 10.0 mi Variable 4.6 mph - N/A   Clear
7:28 AM -0.0 °F -9.9 °F -7.1 °F 72% 29.64 in 10.0 mi Variable 4.6 mph - N/A   Mostly Cloudy
7:53 AM 1.0 °F -10.3 °F -6.0 °F 72% 29.76 in 5.0 mi SW 5.8 mph - N/A   Haze
8:33 AM 1.0 °F -10.3 °F -5.1 °F 75% 29.63 in 9.0 mi SW 5.8 mph - N/A   Overcast
8:53 AM 1.9 °F -9.2 °F -2.9 °F 80% 29.75 in 8.0 mi Variable 5.8 mph - N/A   Overcast
9:34 AM 3.0 °F -9.3 °F -2.9 °F 76% 29.61 in 10.0 mi Variable 6.9 mph 17.3 mph N/A   Overcast
9:53 AM 3.9 °F -8.2 °F -2.9 °F 73% 29.74 in 9.0 mi SW 6.9 mph - N/A   Overcast
10:01 AM 3.9 °F -11.3 °F -2.9 °F 73% 29.61 in 9.0 mi SSW 10.4 mph - N/A   Overcast
10:19 AM 5.0 °F -5.6 °F -2.0 °F 73% 29.61 in 10.0 mi SW 5.8 mph - N/A   Overcast
10:53 AM 6.1 °F -6.8 °F -2.0 °F 69% 29.74 in 10.0 mi SSW 8.1 mph - N/A   Overcast
11:33 AM 7.0 °F -6.6 °F -2.0 °F 67% 29.59 in 1.8 mi SSW 9.2 mph 17.3 mph 0.00 in Snow Light Snow
11:40 AM 7.0 °F -8.3 °F -2.0 °F 67% 29.59 in 1.0 mi SSW 11.5 mph - 0.00 in Snow Light Snow
11:53 AM 7.0 °F -6.6 °F -0.9 °F 70% 29.70 in 1.5 mi SSW 9.2 mph 18.4 mph 0.00 in Snow Light Snow
12:13 PM 7.0 °F -7.5 °F -0.0 °F 73% 29.57 in 0.8 mi South 10.4 mph 19.6 mph 0.00 in Snow Light Snow
12:41 PM 8.1 °F -4.3 °F -0.0 °F 70% 29.56 in 1.2 mi South 8.1 mph - 0.00 in Snow Light Snow
12:53 PM 8.1 °F -6.2 °F -0.0 °F 70% 29.68 in 1.0 mi SSW 10.4 mph - 0.00 in Snow Light Snow
1:11 PM 8.1 °F -6.2 °F 1.0 °F 73% 29.55 in 0.5 mi South 10.4 mph 20.7 mph 0.00 in Snow Snow
1:35 PM 9.0 °F -3.2 °F 1.0 °F 70% 29.52 in 1.2 mi South 8.1 mph 17.3 mph 0.00 in Snow Light Snow
1:53 PM 9.0 °F -5.9 °F 1.0 °F 70% 29.65 in 1.2 mi SSW 11.5 mph 20.7 mph 0.00 in Snow Light Snow
2:43 PM 10.0 °F -5.9 °F 1.9 °F 70% 29.51 in 2.0 mi SSW 13.8 mph 23.0 mph 0.00 in Snow Light Snow
2:53 PM 10.0 °F -7.1 °F 1.9 °F 70% 29.63 in 2.5 mi South 16.1 mph 20.7 mph 0.00 in Snow Light Snow
3:12 PM 10.9 °F -4.7 °F 3.0 °F 70% 29.50 in 1.8 mi South 13.8 mph 18.4 mph 0.00 in Snow Light Snow
3:53 PM 10.9 °F -3.4 °F 3.0 °F 70% 29.62 in 2.5 mi South 11.5 mph 21.9 mph 0.00 in Snow Light Snow
4:00 PM 10.9 °F -2.6 °F 3.9 °F 73% 29.49 in 3.0 mi South 10.4 mph 24.2 mph 0.00 in Snow Light Snow
4:10 PM 12.0 °F -1.3 °F 3.9 °F 70% 29.49 in 2.5 mi South 10.4 mph - 0.00 in Snow Light Snow
4:25 PM 12.0 °F -1.3 °F 5.0 °F 73% 29.49 in 1.8 mi South 10.4 mph - 0.00 in Snow Light Snow
4:35 PM 12.0 °F -1.3 °F 5.0 °F 73% 29.49 in 2.5 mi South 10.4 mph - 0.00 in Snow Light Snow
4:53 PM 12.9 °F 0.7 °F 6.1 °F 74% 29.59 in 2.0 mi South 9.2 mph 17.3 mph 0.00 in Snow Light Snow
5:10 PM 12.9 °F -0.9 °F 6.1 °F 74% 29.47 in 1.8 mi South 11.5 mph 19.6 mph 0.00 in Snow Light Snow
5:29 PM 14.0 °F -0.8 °F 7.0 °F 74% 29.47 in 3.0 mi South 13.8 mph 21.9 mph 0.00 in Snow Light Snow
5:53 PM 14.0 °F 2.0 °F 8.1 °F 77% 29.60 in 4.0 mi South 9.2 mph 20.7 mph 0.00 in Snow Light Snow
6:53 PM 17.1 °F 5.8 °F 9.0 °F 71% 29.59 in 10.0 mi SSW 9.2 mph 21.9 mph 0.00 in   Overcast
7:53 PM 19.9 °F 7.3 °F 10.9 °F 68% 29.60 in 10.0 mi SW 12.7 mph 28.8 mph N/A   Overcast
8:53 PM 21.9 °F 9.2 °F 15.1 °F 75% 29.60 in 10.0 mi SW 13.8 mph 24.2 mph 0.00 in   Overcast
9:53 PM 25.0 °F 16.3 °F 16.0 °F 69% 29.58 in 10.0 mi SW 8.1 mph 23.0 mph N/A   Overcast
10:30 PM 26.1 °F 15.6 °F 16.0 °F 66% 29.48 in 10.0 mi SW 11.5 mph 24.2 mph N/A   Overcast
10:53 PM 27.0 °F 18.0 °F 17.1 °F 66% 29.57 in 10.0 mi SSW 9.2 mph 18.4 mph N/A   Overcast
11:53 PM 28.9 °F 19.8 °F 19.0 °F 67% 29.52 in 10.0 mi SSW 10.4 mph 20.7 mph N/A   Overcast